Погода в Новом Домозерово

Россия / Вологодская область     59°02′33″N   38°08′24″E
темп.,
°C
ветер,
м/с
пор.,
м/с
влажн.,
%
обл.,
%
осадки,
мм/ч
давл.,
гПа
погр.,
м
11 апреля, вс
вс1100:00+3ю617808 0.0 1019621
03:00+2з3797100 0.0 1022480
06:000зюз269899 0.0 1024182
09:00+4зюз358092 0.0 1027482
12:00+6юз34540 0.0 1028979
15:00+8ююз24505 0.0 10301069
18:00+6ю24693 0.0 1031187
21:00+3ююв22785 0.0 103222
12 апреля, пн
пн1200:00+2юв22858 0.0 103334
03:00+3юв249297 0.0 103395
06:00+4юв2696100 0.1 1033140
09:00+6ю3986100 0.1 1033287
12:00+10ю59656 0.0 1032425
15:00+13ю59585 0.0 1031756
18:00+12ююв396619 0.0 1029388
21:00+9юв41377100 0.0 1028469
13 апреля, вт
вт1300:00+8ююв51280100 0.0 1027624
03:00+6ююв41086100 0.1 1025329
06:00+5ююв41094100 0.0 1024268
09:00+7ю4889100 0.0 1023267
12:00+11ю477891 0.0 1022375
15:00+13ю4773100 0.0 1021501
18:00+10ю41183100 0.2 1020370
21:00+9ю41292100 0.8 1020403
14 апреля, ср
ср1400:00+8ю3796100 0.1 1019192
03:00+8ю41098100 1.1 1018300
06:00+7ю3798100 1.6 1017195
09:00+7з1499100 4.4 1018195
12:00+8сз2594100 2.1 1019320
15:00+9сз2579100 2.3 1020249
18:00+8ссз4769100 0.0 1021477
21:00+5ссв3880100 0.0 1022236
15 апреля, чт
чт1500:00+3ссв3981100 0.0 1023400
03:00+2ссв3682100 0.0 1023360
06:00+1с3687100 0.0 1023314
09:00+3с3571100 0.0 1023627
12:00+5ссз4555100 0.0 10231053
15:00+7ссз46469 0.0 10221609
18:00+6с465049 0.0 10211060
21:00+2ссз26686 0.0 1022124